Location: St. Louis
(38.6270°N, 90.1994°W)
Time: 17:31:46
(UTC-06:00)

Tiros 1 - Pass Details

Date: 05 December 2021
Orbit: 629 x 664 km, 48.4° (Epoch: 26 January)

Event Time Altitude Azimuth Distance (km) Brightness Sun altitude
Rises 17:59:53 0° 243° (WSW) 2,907 12.3 -15.3°
Reaches altitude 10° 18:02:12 10° 246° (WSW) 2,005 11.0 -15.8°
Maximum altitude 18:06:48 68° 330° (NNW) 683 7.3 -16.6°
Enters shadow 18:09:08 28° 46° (NE) 1,185 8.0 -17.1°
